{"data":{"norad_id":40340,"epoch":"2026-05-25T04:02:58.735968Z","epoch_age_seconds":50505,"freshness":"FRESH","line1":"1 40340U 14080C   26145.16873537 -.00000307  00000+0 -24501-3 0  9998","line2":"2 40340  63.3889  10.5954 0364849   9.5303 351.2404 13.45346504562656","mean_motion":13.45346504,"eccentricity":0.0364849,"inclination_deg":63.3889,"raan_deg":10.5954,"arg_perigee_deg":9.5303,"mean_anomaly_deg":351.2404,"bstar":-0.00024501,"rev_number":56265,"period_min":107.0356221032,"perigee_km":816.97563370355,"apogee_km":1361.8824336684,"semimajor_km":7467.566033686,"source":"CELESTRAK","updated_at":"2026-05-25T13:37:55.517270Z"}}